Location: Boca do Mato
(22.9085°S, 43.2930°W)
Time: 00:22:53
(UTC+00:00)

Daily predictions for brighter satellites

Satellite Brightness Start Highest point End
(mag) Time Altitude Azimuth Time Altitude Azimuth Time Altitude Azimuth
Aurora 2 Rocket 4.3 06:47:54 73° SE 06:47:54 73° SE 06:55:14 10° E
Atlas Centaur 2 3.4 06:57:45 53° SSE 06:57:45 53° SSE 07:04:34 10° ESE
Hubble Space Telescope 3.3 07:07:22 20° E 07:07:22 20° E 07:08:51 10° E
Cosmos 2227 Rocket 3.6 07:08:44 27° SSE 07:10:37 33° ESE 07:15:40 10° NE
BREEZE-M R/B 4.2 07:14:43 45° NNW 07:14:43 45° NNW 07:23:33 10° NNE
Cosmos 1980 Rocket 2.5 07:15:07 63° E 07:15:07 63° E 07:20:25 10° SSE
Cosmos 2219 3.2 07:30:35 67° S 07:31:22 82° ESE 07:37:04 10° NNE
Delta 168 3.8 07:31:00 64° NNW 07:31:40 70° NNE 07:36:26 10° E
Cosmos 1455 Rocket 4.2 07:33:52 25° SSE 07:35:56 41° E 07:40:01 10° NNE
GPS 2-18 Rocket1 3.7 07:45:26 54° NE 07:45:26 54° NE 07:48:46 10° E
Chandra Rocket (1) 3.7 07:41:34 38° W 07:45:38 59° NNW 07:50:26 10° NE
MOS 1-B 4.5 07:42:44 10° NNE 07:48:30 73° ESE 07:54:15 10° S
PSLV R/B 3.8 07:45:10 10° NNE 07:48:56 78° NNE 07:48:56 78° NNE
Cosmos 1763 Rocket 3.5 07:45:28 10° NNW 07:50:41 59° WSW 07:55:57 10° S
Cosmos 1025 Rocket 2.8 07:53:56 10° N 07:58:12 87° W 08:02:31 10° S
Cosmos 1470 3.2 07:57:11 19° S 07:59:48 59° E 08:03:36 10° NNE
Cosmos 1689 Rocket 3.4 08:00:22 10° SSE 08:03:16 42° E 08:06:08 10° N
Cosmos 2195 Rocket 4.4 07:58:00 10° NNW 08:04:14 67° W 08:10:36 10° S
Cosmos 1570 Rocket 3.9 07:59:57 10° NNW 08:05:16 82° WSW 08:10:41 10° SSE
Cosmos 2297 Rocket 2.4 08:07:42 32° SW 08:09:54 50° WNW 08:15:20 10° N
Cosmos 1536 Rocket 3.4 08:09:34 10° NNW 08:13:53 68° W 08:18:14 10° S
SJ 16-02 1.8 08:09:58 10° S 08:14:23 62° ESE 08:18:44 10° NNE
Cosmos 1707 3.6 08:12:46 10° NNW 08:15:24 31° WNW 08:15:24 31° WNW
Cosmos 540 Rocket 3.4 08:12:38 10° NNW 08:17:46 69° WSW 08:22:57 10° S
Cosmos 841 Rocket 3.4 08:13:13 10° NNW 08:18:24 64° WSW 08:23:40 10° S
Cosmos 2322 Rocket 3.3 08:13:21 10° N 08:18:47 48° ENE 08:24:16 10° SSE
Cosmos 1544 Rocket 3.4 08:14:31 10° S 08:18:52 78° W 08:23:11 10° N
EPKM 2.9 08:21:12 33° WSW 08:22:36 63° S 08:31:34 10° E
Cosmos 2026 Rocket 4.0 08:17:55 10° NNW 08:23:47 52° W 08:29:47 10° S
ADEOS Rocket 3.1 08:20:26 10° SSE 08:26:00 74° ENE 08:31:51 10° N
CZ-4B DEB 4.5 08:20:47 10° N 08:26:00 45° W 08:31:18 10° SSW
Cosmos 1953 3.3 08:23:25 10° S 08:27:19 48° E 08:31:10 10° NNE
Delta 7925 Rocket 3.4 08:26:10 26° WSW 08:28:39 58° S 08:33:25 10° E
Cosmos 1818 3.9 08:24:00 10° NNW 08:29:21 70° ENE 08:34:45 10° SSE
DELTA 2 R/B (1) 4.1 08:29:21 21° W 08:32:31 39° SSW 08:37:47 10° SE
NOAA 6 4.3 08:29:52 10° N 08:34:44 45° W 08:39:40 10° SSW
CCE 1 Rocket 4.4 08:30:40 10° WNW 08:37:01 59° NNE 08:41:07 10° E
Okean O Rocket 1.7 08:34:32 10° N 08:38:53 58° W 08:43:19 10° SSW
Cosmos 1937 Rocket 4.2 08:35:17 10° S 08:40:23 56° ESE 08:45:28 10° NNE
Aurora 2 Rocket 3.9 08:34:22 17° W 08:41:54 85° NNW 08:48:26 10° ENE
Helios 1A Rocket 4.2 08:39:08 10° NE 08:42:56 41° ESE 08:46:48 10° S
Hubble Space Telescope 0.8 08:42:44 15° W 08:46:07 65° SSW 08:50:16 10° ESE
SMAP 3.0 08:41:59 10° N 08:46:37 72° WNW 08:51:19 10° SSW
Atlas Centaur 2 3.4 08:40:21 15° WSW 08:47:14 50° S 08:54:23 10° ESE
Cosmos 2263 Rocket 4.2 08:42:55 10° S 08:47:45 28° ESE 08:52:32 10° NE
YAOGAN 6 2.5 08:45:01 10° N 08:48:37 74° W 08:52:12 10° SSW
Cosmos 1437 2.6 08:46:52 10° NNW 08:49:47 52° W 08:52:45 10° S
Cosmos 2360 Rocket 3.5 08:45:29 10° N 08:50:50 45° ENE 08:56:12 10° SSE
ASTEX 1 3.7 08:46:12 10° NNE 08:51:03 70° E 08:55:58 10° S
NOAA 12 4.1 08:47:13 10° NNE 08:52:28 85° WNW 08:57:46 10° SSW
Cosmos 1655 Rocket 4.0 08:46:53 10° N 08:53:07 79° W 08:59:25 10° S
Meteor 2-19 Rocket 4.5 08:47:09 10° N 08:53:19 88° W 08:59:33 10° S
ATLAS 5 CENTAUR R/B 2.8 08:46:46 10° NW 08:53:56 66° WSW 09:00:57 10° SSE
Cosmos 2227 Rocket 3.4 08:50:37 12° WSW 08:54:20 21° WNW 08:58:30 10° NNW
Cosmos 1340 Rocket 3.5 08:50:57 10° SSW 08:54:38 33° W 08:58:18 10° NNW
Cosmos 2082 4.2 08:52:42 10° SW 08:58:02 40° WNW 09:03:18 10° N
Cosmos 1980 Rocket 3.9 08:57:27 10° W 08:59:07 11° WSW 09:00:48 10° SW
H-2A R/B 4.2 08:56:26 10° NW 08:59:20 20° W 09:02:16 10° SW
NOSS 3-1 (C) 3.1 08:54:28 10° SSW 09:00:08 81° WNW 09:05:16 10° NNE
SKYMED 2 3.5 08:57:36 10° S 09:01:57 67° WSW 09:06:15 10° NNW
CORIOLIS 4.2 08:58:04 10° N 09:03:26 64° WNW 09:08:51 10° SSW
Envisat 3.5 09:01:21 10° N 09:06:06 41° W 09:10:56 10° SSW
Cosmos 2266 Rocket 4.1 09:00:40 10° N 09:07:02 83° W 09:13:21 10° S
Cosmos 1674 3.5 09:04:23 10° NW 09:07:37 28° W 09:10:55 10° SSW
Okean-O 3.8 09:07:00 10° NNE 09:11:16 47° ESE 09:15:34 10° S
